Location: Asheville, NC
(35.6000°N, 82.5500°W)
Time: 04:36:07
(UTC-04:00)

Envisat - Pass Details

Date: 13 February 2018
Orbit: 764 x 766 km, 98.2° (Epoch: 24 May)

Event Time Altitude Azimuth Distance (km) Brightness Sun altitude
Exits shadow 20:30:50 22° 193° (SSW) 1,607 4.7 -29.1°
Maximum altitude 20:33:53 51° 260° (W) 950 3.7 -29.7°
Drops below altitude 10° 20:38:50 10° 337° (NNW) 2,303 5.8 -30.7°
Sets 20:41:12 0° 342° (NNW) 3,233 6.5 -31.2°
